Location: Buckeye Ditch
(40.9104°N, 122.9517°W)
Time: 17:14:31
(UTC+00:00)

BlueWalker 3 - Pass Details

Date: 24 June 2024
Orbit: 480 x 491 km, 53.2° (Epoch: 23 July)

Event Time Altitude Azimuth Distance (km) Brightness Sun altitude
Rises 08:23:50 0° 314° (NW) 2,540 6.1 -25.7°
Reaches altitude 10° 08:26:22 10° 331° (NNW) 1,658 5.3 -25.6°
Maximum altitude 08:29:19 21° 22° (NNE) 1,114 4.4 -25.6°
Drops below altitude 10° 08:32:14 10° 74° (ENE) 1,654 4.8 -25.6°
Enters shadow 08:33:40 - 85° (E) 2,128 5.2 -25.5°
